Location: Newark
(41.6500°N, 71.4833°W)
Time: 06:50:49
(UTC+00:00)

A-11 Canister half - Pass Details

Date: 22 January 2020
Orbit: 1517 x 1683 km, 47.2° (Epoch: 17 February)

Event Time Altitude Azimuth Distance (km) Brightness Sun altitude
Rises 12:01:38 0° 296° (WNW) 4,666 - -1.7°
Exits shadow 12:02:15 - 296° (WNW) 4,475 10.7 -1.6°
Reaches altitude 10° 12:04:49 10° 291° (WNW) 3,687 10.3 -1.2°
Maximum altitude 12:13:23 44° 223° (SW) 2,030 9.6 0.3°
Drops below altitude 10° 12:22:09 10° 155° (SSE) 3,759 12.0 1.7°
Sets 12:25:26 0° 149° (SSE) 4,764 12.8 2.3°
